GS0511 Weather Reports


Display with metric or nautical units.
time (UTC)temp
F
wind
direction
speed
MPH
gust
MPH
rain 1hr
in
rain 24hr
in
rain mn
in
humidity
%
barometer
mb
20260509082959 37 303 0.0 0.0 0.00 0.03 0.00 92 1009.4
20260509081458 37 303 0.0 0.0 0.00 0.03 0.00 92 1009.6
20260509080000 37 303 0.0 0.0 0.00 0.03 0.00 92 1009.6
20260509074500 37 303 0.0 0.0 0.00 0.03 0.00 92 1009.8
20260509070000 37 303 0.0 0.0 0.00 0.03 0.00 91 1010.0
20260509064458 37 303 0.0 0.0 0.00 0.03 0.00 90 1010.1
20260509062957 37 303 0.0 0.0 0.00 0.03 0.00 90 1010.4
20260509061457 38 303 0.0 0.0 0.00 0.03 0.00 89 1010.5
20260509060000 38 303 0.0 0.0 0.00 0.03 0.00 89 1010.7
20260509054457 38 303 0.0 0.0 0.00 0.03 0.00 89 1010.8
20260509052958 39 303 0.0 0.0 0.00 0.03 0.00 88 1010.9
20260509051457 39 303 0.0 0.0 0.00 0.03 0.00 90 1011.1
20260509050001 39 303 0.0 0.0 0.00 0.03 0.00 90 1011.2
20260509044457 39 303 0.0 0.0 0.00 0.04 0.00 88 1011.2
20260509042958 39 303 0.0 0.0 0.00 0.04 0.00 88 1011.4
20260509041458 40 303 0.0 0.0 0.00 0.04 0.00 88 1011.7
20260509040007 40 303 0.0 0.0 0.00 0.04 0.00 89 1011.7
20260509033001 41 303 0.0 0.0 0.00 0.07 0.04 89 1011.6
20260509031502 42 303 0.0 0.0 0.00 0.07 0.04 88 1011.8
20260509030003 42 303 0.0 0.0 0.00 0.07 0.04 87 1011.9
20260509024500 43 303 0.0 0.0 0.00 0.08 0.04 86 1011.8
20260509023000 43 303 0.0 0.0 0.00 0.08 0.04 84 1011.7
20260509021500 44 303 0.0 0.0 0.00 0.08 0.04 82 1011.8
20260509020004 45 303 0.0 0.0 0.00 0.08 0.04 81 1011.8
20260509014500 45 303 0.0 0.0 0.00 0.08 0.04 77 1011.8
20260509011502 47 303 0.0 0.0 0.00 0.08 0.04 72 1011.8
20260509010004 48 303 0.0 0.0 0.00 0.08 0.04 74 1011.5
20260509004500 50 303 0.0 0.0 0.00 0.08 0.04 71 1011.3
20260509003000 51 303 0.0 0.0 0.00 0.08 0.04 66 1011.2
20260509001500 52 303 0.0 0.0 0.00 0.08 0.04 64 1011.2
20260508234500 55 303 0.0 0.0 0.00 0.08 0.04 63 1011.1
20260508233000 55 303 0.0 1.0 0.00 0.08 0.04 51 1011.0
20260508230007 56 283 0.0 1.0 0.00 0.08 0.04 46 1010.9
20260508223000 57 274 3.0 7.0 0.00 0.08 0.04 42 1010.9
20260508221500 57 360 2.0 3.0 0.00 0.08 0.04 45 1010.9
20260508220008 58 251 2.0 8.0 0.00 0.08 0.04 40 1011.0
20260508214500 57 274 3.0 6.0 0.00 0.08 0.04 44 1011.0
20260508211500 57 345 3.0 8.0 0.00 0.08 0.04 48 1011.1
20260508210003 57 235 3.0 11.0 0.00 0.08 0.04 41 1011.2
20260508204500 57 184 3.0 8.0 0.00 0.08 0.04 45 1011.3
20260508203000 57 32 3.0 7.0 0.00 0.08 0.04 50 1011.4
20260508201500 56 256 4.0 9.0 0.00 0.08 0.04 45 1011.6
20260508200002 56 286 4.0 11.0 0.00 0.08 0.04 46 1011.8
20260508192959 55 272 4.0 8.0 0.00 0.08 0.04 50 1012.2
20260508191459 55 227 3.0 10.0 0.00 0.08 0.04 51 1012.4
20260508190004 56 330 3.0 7.0 0.00 0.08 0.04 49 1012.3
20260508184459 54 290 3.0 9.0 0.00 0.08 0.04 52 1012.4
20260508182959 54 325 4.0 8.0 0.00 0.08 0.04 51 1012.4
20260508181459 54 214 4.0 11.0 0.00 0.08 0.04 52 1012.5
20260508180006 53 182 5.0 9.0 0.00 0.08 0.04 59 1012.6
20260508174459 53 267 4.0 7.0 0.00 0.08 0.04 58 1012.8
20260508172959 52 213 5.0 8.0 0.00 0.08 0.04 64 1012.8
20260508170003 50 267 4.0 10.0 0.00 0.08 0.04 67 1013.1
20260508164459 50 221 4.0 8.0 0.00 0.08 0.04 66 1013.1
20260508162959 49 209 3.0 7.0 0.00 0.08 0.04 71 1013.3
20260508161459 49 294 5.0 9.0 0.00 0.08 0.04 71 1013.6
20260508160004 48 209 4.0 10.0 0.00 0.08 0.04 73 1013.6
20260508154459 47 170 4.0 9.0 0.00 0.08 0.04 72 1013.6
20260508153000 47 225 3.0 5.0 0.00 0.08 0.04 75 1013.7
20260508151459 46 185 3.0 5.0 0.00 0.08 0.04 80 1013.6
20260508150005 45 171 4.0 7.0 0.00 0.08 0.04 81 1013.6
20260508142958 44 165 5.0 9.0 0.00 0.08 0.04 85 1013.4
20260508141458 44 224 4.0 9.0 0.00 0.08 0.04 85 1013.5
20260508140002 43 192 2.0 7.0 0.00 0.08 0.04 85 1013.4
20260508134459 42 261 3.0 6.0 0.00 0.08 0.04 89 1013.7
20260508132958 42 253 2.0 4.0 0.00 0.08 0.04 89 1013.7
20260508131459 42 265 3.0 7.0 0.01 0.08 0.04 89 1013.5
20260508130002 41 207 2.0 5.0 0.02 0.08 0.04 91 1013.6
20260508124459 41 236 1.0 4.0 0.03 0.08 0.04 93 1013.5
20260508122959 40 265 1.0 4.0 0.03 0.08 0.04 92 1013.5
20260508121459 41 267 4.0 12.0 0.02 0.07 0.03 93 1013.6
20260508114459 41 261 1.0 3.0 0.00 0.05 0.01 97 1012.8
20260508112958 40 213 0.0 0.0 0.00 0.05 0.01 97 1012.4
20260508111458 40 213 0.0 2.0 0.00 0.05 0.01 97 1012.2
20260508110001 40 213 0.0 2.0 0.00 0.05 0.01 97 1012.1
20260508104459 39 213 0.0 0.0 0.00 0.05 0.01 97 1011.8
20260508102959 39 213 0.0 0.0 0.00 0.05 0.01 96 1011.9
20260508101458 39 213 0.0 0.0 0.00 0.05 0.01 96 1011.8
20260508100003 39 213 0.0 2.0 0.00 0.05 0.01 96 1011.9
20260508094458 39 213 0.0 0.0 0.00 0.05 0.01 96 1012.1
20260508092959 38 213 0.0 0.0 0.00 0.05 0.01 97 1012.2
20260508091458 38 213 0.0 0.0 0.00 0.05 0.01 96 1012.4
20260508090005 38 213 0.0 0.0 0.00 0.05 0.01 96 1012.4
20260508084458 37 213 0.0 0.0 0.00 0.05 0.01 96 1012.4